Pasco, WA
on Sunday, November 11, 2012

Sunday
Previous Day Next Day
Daily Summary
 ActualAverageRecord
Temperature
Mean Temperature °F 43°F  
Max Temperature 36°F 52°F 70°F (1990)
Min Temperature 22°F 33°F 18°F (2000)
Degree Days
Heating Degree Days 36 22  
Month to date heating degree days 209 224  
Since 1 July heating degree days 653 742  
Cooling Degree Days 0 0  
Month to date cooling degree days 0 0  
Year to date cooling degree days 788 710  
Moisture
Dew Point 28°F   
Average Humidity 95    
Maximum Humidity 100    
Minimum Humidity 89    
Precipitation
Precipitation 0.02 in 0.04 in 0.48 in (1983)
Month to date precipitation 0.12 0.35  
Year to date precipitation 7.58 6.88  
Snow
Snow 0.00 in in in ()
Snow Depth 0.00 in   
Wind
Wind Speed 2 mph   
Max Wind Speed 10 mph   
Max Gust Speed 12 mph   
Visibility 5 miles   
Events Rain   

Key: T is trace of precipitation, MM is missing value
Source: NWS Daily Summary
Time(PST)TemperatureDew PointHumidity Pressure Visibility Wind DirectionWind SpeedGust SpeedPrecipitationEvents Conditions
12:53 AM 23.0°F 21.0°F 92% 30.29 in 10.0 miles NNE 4.6 mph - N/A   Clear
1:34 AM 24.8°F 21.2°F 86% 30.29 in 10.0 miles Calm Calm - N/A   Scattered Clouds
1:43 AM 24.8°F 23.0°F 93% 30.29 in 10.0 miles Calm Calm - N/A   Mostly Cloudy
1:53 AM 24.1°F 23.0°F 96% 30.31 in 1.2 miles Calm Calm - N/A   Overcast
2:00 AM 23.0°F 21.2°F 93% 30.29 in 2.0 miles Calm Calm - N/A   Overcast
2:14 AM 24.8°F 21.2°F 86% 30.29 in 6.0 miles Calm Calm - N/A   Mostly Cloudy
2:23 AM 24.8°F 23.0°F 93% 30.29 in 6.0 miles Calm Calm - N/A   Scattered Clouds
2:51 AM 24.8°F 23.0°F 93% 30.29 in 10.0 miles Calm Calm - N/A   Mostly Cloudy
2:53 AM 24.1°F 23.0°F 96% 30.31 in 10.0 miles Calm Calm - N/A   Mostly Cloudy
3:37 AM 26.6°F 24.8°F 93% 30.29 in 1.8 miles Calm Calm - N/A   Overcast
3:53 AM 26.1°F 25.0°F 96% 30.31 in 1.0 miles Calm Calm - N/A   Overcast
4:33 AM 26.6°F 24.8°F 93% 30.30 in 2.0 miles Calm Calm - N/A   Overcast
4:40 AM 26.6°F 24.8°F 93% 30.30 in 1.8 miles Calm Calm - N/A   Overcast
4:53 AM 26.1°F 25.0°F 96% 30.32 in 0.8 miles Calm Calm - N/A   Overcast
5:09 AM 26.6°F 26.6°F 100% 30.30 in 3.0 miles Calm Calm - N/A   Overcast
6:53 AM 28.0°F 27.0°F 96% 30.32 in 2.0 miles Calm Calm - N/A   Overcast
7:53 AM 30.0°F 30.0°F 100% 30.33 in 2.0 miles NNW 3.5 mph - N/A   Overcast
8:37 AM 32.0°F 30.2°F 93% 30.33 in 1.0 miles NNW 3.5 mph - N/A   Overcast
8:53 AM 32.0°F 32.0°F 100% 30.35 in 1.0 miles Calm Calm - N/A   Overcast
9:53 AM 33.1°F 33.1°F 100% 30.36 in 0.8 miles Calm Calm - N/A   Overcast
10:53 AM 33.1°F 32.0°F 96% 30.36 in 0.8 miles Calm Calm - N/A   Overcast
11:53 AM 34.0°F 32.0°F 92% 30.35 in 2.0 miles NW 4.6 mph - N/A   Overcast
12:53 PM 35.1°F 33.1°F 92% 30.35 in 3.0 miles WNW 4.6 mph - N/A   Overcast
1:53 PM 36.0°F 33.1°F 89% 30.35 in 3.0 miles NW 3.5 mph - N/A   Overcast
2:53 PM 36.0°F 33.1°F 89% 30.35 in 10.0 miles WNW 4.6 mph - N/A   Overcast
3:09 PM 35.6°F 33.8°F 93% 30.34 in 10.0 miles WNW 4.6 mph - N/A   Overcast
3:53 PM 36.0°F 33.1°F 89% 30.35 in 10.0 miles WNW 5.8 mph - N/A   Overcast
5:53 PM 35.1°F 32.0°F 89% 30.35 in 10.0 miles WNW 4.6 mph - N/A   Overcast
6:53 PM 34.0°F 32.0°F 92% 30.35 in 8.0 miles West 5.8 mph - N/A   Mostly Cloudy
7:53 PM 34.0°F 32.0°F 92% 30.34 in 8.0 miles WNW 4.6 mph - N/A   Overcast
8:53 PM 35.1°F 32.0°F 89% 30.34 in 9.0 miles West 4.6 mph - N/A   Overcast
9:53 PM 35.1°F 33.1°F 92% 30.33 in 9.0 miles WNW 3.5 mph - N/A   Overcast
10:53 PM 35.1°F 33.1°F 92% 30.32 in 8.0 miles Calm Calm - 0.00 in Rain Light Rain
11:53 PM 35.1°F 34.0°F 96% 30.32 in 6.0 miles Calm Calm - 0.02 in Rain Light Rain
Moon Phase
Nov. 11 Nov. 13 Nov. 20 Nov. 28 Dec. 06
Sunrise:06:52 AM (PST) Moon Rise:04:05 AM (PST)11/11
Sunset:04:27 PM (PST) Moon Set:02:59 PM (PST)11/11

Copyright © 2014 The Weather Underground, Inc.